AirNav   Air Wisconsin pilot careers
 
 441 users online  

UT99 West Desert Airpark
Cedar Valley, Utah, USA

GOING TO CEDAR VALLEY?


FAA INFORMATION EFFECTIVE 04 JANUARY 2018

Location

FAA Identifier: UT99
Lat/Long: 40-14-33.3600N / 112-05-34.9200W
40-14.556000N / 112-05.582000W
40.2426000 / -112.0930333
(estimated)
Elevation: 4902 ft. / 1494 m (estimated)
From city: 2 miles N of CEDAR VALLEY, UT
Time zone: UTC -7 (UTC -6 during Daylight Saving Time)
Zip code: 84013

Airport Operations

Airport use: Private use. Permission required prior to landing
Activation date: 10/2003
Control tower: no
ARTCC: SALT LAKE CITY CENTER
FSS: CEDAR CITY FLIGHT SERVICE STATION
Attendance: 0900-1700
Wind indicator: yes
Segmented circle: no

Airport Communications

WX AWOS-3PT at PVU (17 nm E): 135.175 (801-373-9782)

Nearby radio navigation aids

VOR radial/distance  VOR name  Freq  Var
FFUr238/7.2FAIRFIELD VORTAC116.6016E
PVUr261/17.1PROVO VOR/DME108.4015E
TCHr172/36.8WASATCH VORTAC116.8016E

Airport Services

Fuel available: MOGAS

Runway Information

Runway 17/35

Dimensions: 2600 x 24 ft. / 792 x 7 m
Surface: asphalt, in good condition
RUNWAY 17  RUNWAY 35
Traffic pattern: leftright

Runway 17R/35L

Dimensions: 1100 x 30 ft. / 335 x 9 m
Surface: turf, in good condition
RUNWAY 17R  RUNWAY 35L
Traffic pattern: leftleft

Airport Ownership and Management from official FAA records

Ownership: Privately-owned
Owner: MARK D. PRINGLE
614 N 18150 WEST
FAIRFIELD, UT 84013
Phone 801-652-5460
Manager: MARK & ALINA PRINGLE
614 N 18150 W
FAIRFIELD, UT 84013
Phone 801-652-5460
ALINA PRINGLE: 801-580-5688

Airport Operational Statistics

Aircraft based on the field: 24
Single engine airplanes: 12
Ultralights: 12
    

Additional Remarks

CTAF: 123.00
MONITOR 122.75 FOR STUDENT TRNG ACTIVITIES IN THE VCNTY OF THE ARPT.
REQ SIGNED WAIVER PRIOR TO LDG. IT CAN BE FOUND ON OUR WEBSITE WWW.RMKPLANES.COM.

Instrument Procedures

There are no published instrument procedures at UT99.

Some nearby airports with instrument procedures:

KPVU - Provo Municipal Airport (17 nm E)
U42 - South Valley Regional Airport (23 nm N)
KTVY - Bolinder Field-Tooele Valley Airport (25 nm NW)
U14 - Nephi Municipal Airport (32 nm S)
KSLC - Salt Lake City International Airport (33 nm N)
 
Loc | Ops | Rwys | IFR | FBO | Links
Com | Nav | Svcs | Stats | Notes

TAC Air
 
Area around UT99 (West Desert Airpark)
 
Road maps at: MapQuest Bing Google
 
Aerial photo
WARNING: Photo may not be current or correct
Aerial photo of UT99 (West Desert Airpark)
Photo by Kaija Kalm
Photo taken 29-Apr-2013
looking northwest.

Do you have a better or more recent aerial photo of West Desert Airpark that you would like to share? If so, please send us your photo.

 
Sectional chart

 
Airport distance calculator
Flying to West Desert Airpark? Find the distance to fly.

From to UT99

Sunrise and sunset
Times for 21-Jan-2018
 Local
(UTC-7)
 Zulu
(UTC)
Morning civil twilight07:1814:18
Sunrise07:4714:47
Sunset17:3300:33
Evening civil twilight18:0201:02

Current date and time
Zulu (UTC)  22-Jan-2018 06:38:18
Local (UTC-7)  21-Jan-2018 23:38:18
 
METAR
KPVU 
17nm E 
220556Z AUTO 00000KT 10SM CLR M08/M09 A3032 RMK AO2 SLP303 T10781094 11006 21083 53005 FZRANO
KU42 
23nm N 
220615Z AUTO 22006KT 10SM CLR M07/M10 A3030 RMK AO1 T10691105
KTVY 
25nm NW 
220615Z AUTO 18012KT 10SM CLR M06/M09 A3030 RMK AO2
KSLC 
33nm N 
220554Z 14007KT 10SM FEW200 M03/M07 A3029 RMK AO2 SLP276 4/005 T10331072 10006 21033 53004
KHCR 
34nm NE 
220615Z AUTO 14003KT 10SM CLR M13/M16 A3026 RMK AO2
TAF
KPVU 
17nm E 
220529Z 2206/2306 13009KT P6SM SCT100 SCT200 FM221900 14006KT P6SM SCT070 BKN090
NOTAMs
Click for the latest NOTAMs
NOTAMs are issued by the DoD/FAA and will open in a separate window not controlled by AirNav.

 

 
 

Would you like to see your business listed on this page?

 If your business provides an interesting product or service to pilots, flight crews, aircraft, or users of the West Desert Airpark, you should consider listing it here.  To start the listing process, click on the button below
 
Add a business
 

Other Pages about West Desert Airpark

rockymountainkitplanes.com/airpark.html
 
Update a link
 
Copyright © AirNav, LLC. All rights reserved. Privacy Policy  Contact